Location: Unspecified
(0.0000°N, 0.0000°E)
Time: 20:10:10
(UTC+00:00)

APRIZESAT 6 - Visible Passes

Search period start: 20 January 2020 00:00
Search period end: 30 January 2020 00:00
Orbit: 621 x 686 km, 98.4° (Epoch: 20 January)

Date Brightness Start Highest point End Pass type
(mag) Time Alt. Az. Time Alt. Az. Time Alt. Az.
20 Jan ? 03:47:20 10° ESE 03:50:04 16° ENE 03:51:25 15° NE visible
20 Jan ? 05:23:18 10° SSW 05:26:31 20° WSW 05:29:16 12° WNW visible
21 Jan ? 04:13:26 10° SSE 04:17:30 39° ENE 04:19:15 27° NNE visible
22 Jan ? 04:40:35 10° S 04:44:56 83° WSW 04:47:05 30° NNW visible
23 Jan ? 05:08:29 10° SSW 05:12:23 32° WSW 05:14:56 18° NW visible
24 Jan ? 03:59:48 10° SE 04:03:22 24° ENE 04:04:55 20° NE visible
24 Jan ? 05:37:35 10° SW 05:39:50 14° WSW 05:42:05 10° WNW visible
25 Jan ? 04:26:29 10° SSE 04:30:47 60° ENE 04:32:46 31° N visible
26 Jan ? 04:53:58 10° S 04:58:14 53° WSW 05:00:37 25° NW visible
27 Jan ? 03:46:37 10° ESE 03:49:15 16° ENE 03:50:37 14° NE visible
27 Jan ? 05:22:17 10° SSW 05:25:42 22° WSW 05:28:28 13° WNW visible
28 Jan ? 04:12:37 10° SE 04:16:39 36° ENE 04:18:28 26° NNE visible
29 Jan ? 04:39:41 10° SSE 04:44:06 88° W 04:46:20 29° NNW visible
